Location: Mount Kobau Star Party
(49.1167°N, 119.7333°W)
Time: 10:41:30
(UTC-07:00)

Envisat - Pass Details

Date: 19 April 2026
Orbit: 761 x 762 km, 98.4° (Epoch: 17 May)

Event Time Altitude Azimuth Distance (km) Brightness Sun altitude
Rises 03:26:27 0° 17° (NNE) 3,233 7.4 -21.4°
Reaches altitude 10° 03:28:48 10° 21° (NNE) 2,303 6.5 -21.1°
Maximum altitude 03:33:49 59° 101° (E) 876 3.4 -20.6°
Enters shadow 03:36:26 27° 171° (S) 1,418 4.0 -20.3°
